Tiempo cada hora Hmeliny

Hoy, 29 Octubre, Jueves

Tiempo Temperatura Precipitaciones Viento Presión Humedad
00:00 +3°C° 0 mm 3 mps 748 mmHg 80%
01:00 +3°C° 0 mm 3 mps 747 mmHg 79%
02:00 +4°C° 0 mm 2 mps 747 mmHg 80%
03:00 +3°C° 0 mm 3 mps 747 mmHg 81%
04:00 +2°C° 0 mm 3 mps 747 mmHg 81%
05:00 +2°C° 0 mm 3 mps 747 mmHg 81%
06:00 +3°C° 0 mm 3 mps 747 mmHg 80%
07:00 +3°C° 0 mm 3 mps 747 mmHg 79%
08:00 +3°C° 0 mm 4 mps 747 mmHg 78%
09:00 +4°C° 0 mm 4 mps 747 mmHg 74%
10:00 +6°C° 0 mm 4 mps 746 mmHg 70%
11:00 +7°C° 0 mm 4 mps 746 mmHg 65%
12:00 +7°C° 0 mm 4 mps 746 mmHg 62%
13:00 +7°C° 0 mm 4 mps 746 mmHg 60%
14:00 +8°C° 0 mm 4 mps 745 mmHg 57%
15:00 +7°C° 0 mm 4 mps 745 mmHg 60%
16:00 +7°C° 0 mm 3 mps 744 mmHg 63%
17:00 +4°C° 0 mm 3 mps 744 mmHg 66%
18:00 +4°C° 0 mm 3 mps 744 mmHg 66%
19:00 +4°C° 0 mm 3 mps 744 mmHg 67%
20:00 +3°C° 0 mm 3 mps 744 mmHg 68%
21:00 +4°C° 0 mm 3 mps 744 mmHg 68%
22:00 +4°C° 0 mm 3 mps 743 mmHg 68%
23:00 +6°C° 0 mm 2 mps 743 mmHg 68%

Mañana, 30 Octubre, Viernes

Tiempo Temperatura Precipitaciones Viento Presión Humedad
00:00 +6°C° 0 mm 2 mps 743 mmHg 69%
01:00 +6°C° 0 mm 2 mps 743 mmHg 70%
02:00 +6°C° 0 mm 2 mps 743 mmHg 71%
03:00 +5°C° 0 mm 2 mps 742 mmHg 72%
04:00 +5°C° 0 mm 2 mps 742 mmHg 74%
05:00 +5°C° 0 mm 2 mps 741 mmHg 75%
06:00 +5°C° 0 mm 2 mps 742 mmHg 75%
07:00 +5°C° 0 mm 2 mps 742 mmHg 75%
08:00 +6°C° 0 mm 2 mps 742 mmHg 75%
09:00 +6°C° 0 mm 2 mps 742 mmHg 72%
10:00 +7°C° 0 mm 2 mps 742 mmHg 70%
11:00 +8°C° 0 mm 2 mps 741 mmHg 67%
12:00 +10°C° 0 mm 1 mps 741 mmHg 67%
13:00 +10°C° 0 mm 1 mps 741 mmHg 66%
14:00 +11°C° 0 mm 1 mps 741 mmHg 65%
15:00 +10°C° 0 mm 1 mps 741 mmHg 69%
16:00 +8°C° 0 mm 0 mps 741 mmHg 74%
17:00 +7°C° 0 mm 0 mps 741 mmHg 78%
18:00 +7°C° 0 mm 0 mps 741 mmHg 80%
19:00 +6°C° 0 mm 0 mps 741 mmHg 81%
20:00 +6°C° 0 mm 0 mps 741 mmHg 83%
21:00 +6°C° 0 mm 0 mps 741 mmHg 84%
22:00 +5°C° 0 mm 0 mps 741 mmHg 85%
23:00 +5°C° 0 mm 0 mps 741 mmHg 86%

Pasado mañana, 31 Octubre, Sábado

Tiempo Temperatura Precipitaciones Viento Presión Humedad
00:00 +5°C° 0 mm 0 mps 741 mmHg 86%
01:00 +5°C° 0 mm 0 mps 740 mmHg 86%
02:00 +5°C° 0 mm 0 mps 740 mmHg 86%
03:00 +6°C° 0 mm 1 mps 740 mmHg 86%
04:00 +6°C° 0 mm 1 mps 741 mmHg 87%
05:00 +6°C° 0 mm 1 mps 741 mmHg 87%
06:00 +6°C° 0 mm 1 mps 741 mmHg 87%
07:00 +6°C° 0 mm 2 mps 741 mmHg 86%
08:00 +6°C° 0 mm 2 mps 741 mmHg 86%
09:00 +7°C° 0 mm 2 mps 742 mmHg 82%
10:00 +8°C° 0 mm 2 mps 742 mmHg 79%
11:00 +9°C° 0 mm 2 mps 742 mmHg 75%
12:00 +9°C° 0 mm 2 mps 742 mmHg 75%
13:00 +9°C° 0 mm 3 mps 743 mmHg 74%
14:00 +9°C° 0 mm 3 mps 743 mmHg 74%
15:00 +8°C° 0 mm 3 mps 743 mmHg 78%
16:00 +7°C° 0 mm 3 mps 743 mmHg 82%
17:00 +7°C° 0 mm 3 mps 744 mmHg 85%
18:00 +5°C° 0 mm 3 mps 744 mmHg 87%
19:00 +5°C° 0 mm 3 mps 745 mmHg 89%
20:00 +4°C° 0 mm 3 mps 745 mmHg 90%
21:00 +4°C° 0 mm 3 mps 746 mmHg 91%
22:00 +4°C° 0 mm 3 mps 746 mmHg 92%
23:00 +3°C° 0 mm 3 mps 746 mmHg 93%

1 Noviembre, Domingo

Tiempo Temperatura Precipitaciones Viento Presión Humedad
00:00 +3°C° 0 mm 3 mps 746 mmHg 94%
01:00 +3°C° 0 mm 3 mps 746 mmHg 94%
02:00 +3°C° 0 mm 3 mps 747 mmHg 94%
03:00 +3°C° 0 mm 3 mps 747 mmHg 94%
04:00 +3°C° 0 mm 3 mps 747 mmHg 94%
05:00 +2°C° 0 mm 3 mps 747 mmHg 94%
06:00 +3°C° 0 mm 4 mps 747 mmHg 93%
07:00 +3°C° 0 mm 4 mps 748 mmHg 92%
08:00 +3°C° 0 mm 4 mps 748 mmHg 91%
09:00 +3°C° 0 mm 5 mps 748 mmHg 88%
10:00 +3°C° 0 mm 5 mps 748 mmHg 85%
11:00 +5°C° 0 mm 5 mps 749 mmHg 82%
12:00 +5°C° 0 mm 5 mps 749 mmHg 83%
13:00 +5°C° 0 mm 5 mps 749 mmHg 84%
14:00 +5°C° 0 mm 5 mps 748 mmHg 84%
15:00 +5°C° 0 mm 5 mps 749 mmHg 83%
16:00 +5°C° 0 mm 5 mps 749 mmHg 82%
17:00 +5°C° 0 mm 5 mps 749 mmHg 81%
18:00 +3°C° 0 mm 5 mps 749 mmHg 82%
19:00 +3°C° 0 mm 5 mps 749 mmHg 83%
20:00 +3°C° 0 mm 5 mps 749 mmHg 83%
21:00 +3°C° 0 mm 5 mps 749 mmHg 84%
22:00 +3°C° 0 mm 5 mps 749 mmHg 85%
23:00 +3°C° 0 mm 5 mps 749 mmHg 86%

2 Noviembre, Lunes

Tiempo Temperatura Precipitaciones Viento Presión Humedad
00:00 +3°C° 0 mm 5 mps 749 mmHg 86%
01:00 +3°C° 0 mm 5 mps 749 mmHg 87%
02:00 +4°C° 0 mm 4 mps 749 mmHg 87%
03:00 +4°C° 0 mm 4 mps 749 mmHg 88%
04:00 +4°C° 0 mm 4 mps 749 mmHg 89%
05:00 +5°C° 0 mm 4 mps 749 mmHg 90%
06:00 +5°C° 0 mm 4 mps 749 mmHg 90%
07:00 +5°C° 0 mm 4 mps 749 mmHg 90%
08:00 +5°C° 0 mm 4 mps 750 mmHg 90%
09:00 +6°C° 0 mm 4 mps 750 mmHg 88%
10:00 +6°C° 0 mm 4 mps 750 mmHg 87%
11:00 +7°C° 0 mm 4 mps 750 mmHg 86%
12:00 +7°C° 0 mm 4 mps 750 mmHg 84%
13:00 +7°C° 0 mm 4 mps 751 mmHg 83%
14:00 +8°C° 0 mm 4 mps 751 mmHg 82%
15:00 +8°C° 0 mm 3 mps 751 mmHg 85%
16:00 +8°C° 0 mm 3 mps 751 mmHg 88%
17:00 +7°C° 0 mm 3 mps 751 mmHg 91%
18:00 +7°C° 0 mm 3 mps 751 mmHg 91%
19:00 +7°C° 0 mm 3 mps 751 mmHg 92%
20:00 +5°C° 0 mm 3 mps 752 mmHg 93%
21:00 +5°C° 0 mm 3 mps 752 mmHg 93%
22:00 +5°C° 0 mm 3 mps 752 mmHg 93%
23:00 +5°C° 0 mm 3 mps 752 mmHg 94%

3 Noviembre, Martes

Tiempo Temperatura Precipitaciones Viento Presión Humedad
00:00 +5°C° 0 mm 3 mps 752 mmHg 94%
01:00 +4°C° 0 mm 3 mps 752 mmHg 94%
02:00 +4°C° 0 mm 3 mps 752 mmHg 95%
03:00 +4°C° 0 mm 3 mps 752 mmHg 94%
04:00 +5°C° 0 mm 3 mps 752 mmHg 93%
05:00 +5°C° 0 mm 3 mps 752 mmHg 91%
06:00 +5°C° 0 mm 3 mps 752 mmHg 91%
07:00 +5°C° 0 mm 3 mps 753 mmHg 90%
08:00 +5°C° 0 mm 4 mps 753 mmHg 89%
09:00 +7°C° 0 mm 4 mps 753 mmHg 84%
10:00 +8°C° 0 mm 4 mps 753 mmHg 78%
11:00 +10°C° 0 mm 4 mps 753 mmHg 73%
12:00 +10°C° 0 mm 4 mps 753 mmHg 71%
13:00 +11°C° 0 mm 4 mps 753 mmHg 70%
14:00 +11°C° 0 mm 4 mps 753 mmHg 68%
15:00 +10°C° 0 mm 4 mps 753 mmHg 73%
16:00 +8°C° 0 mm 4 mps 753 mmHg 77%
17:00 +8°C° 0 mm 3 mps 753 mmHg 82%
18:00 +8°C° 0 mm 3 mps 753 mmHg 83%
19:00 +7°C° 0 mm 3 mps 753 mmHg 84%
20:00 +6°C° 0 mm 4 mps 753 mmHg 85%
21:00 +7°C° 0 mm 3 mps 753 mmHg 85%
22:00 +7°C° 0 mm 3 mps 754 mmHg 85%
23:00 +7°C° 0 mm 3 mps 754 mmHg 86%
Mostrar más

Necesitamos Su Consentimiento

Meteoprog y nuestros Proveedores de Servicios pueden almacenar y acceder a sus datos personales como cookies, identificadores de dispositivo u otras tecnologías similares de su dispositivo y procesar dichos datos para personalizar contenido y anuncios, además de ofrecer funciones de redes sociales y analizar el tráfico.

  • Almacenar y/o acceder a información en su dispositivo

    Se puede almacenar o acceder a cookies, identificadores de dispositivo u otra información de su dispositivo para los fines anteriormente indicados.

  • Anuncios y contenido personalizados, medición de anuncios y contenido, percepciones del público, y desarrollo de productos

    Los anuncios y el contenido pueden personalizarse en base a su perfil. Se pueden añadir más datos para personalizar mejor los anuncios y contenidos. Se puede medir el rendimiento de los anuncios y contenidos. Se puede obtener la percepción sobre el público que ha visto los anuncios y contenidos. Dichos datos pueden usarse para desarrollar o mejorar la experiencia del usuario, sistemas y software.

Al hacer clic en ‘Estoy De Acuerdo’ usted permitirá el uso de las cookies, identificadores de dispositivo, balizas web u otras tecnologías similares indicadas. Su configuración puede cambiarse desde el navegador de su dispositivo.

Para ciertos fines, los intereses legítimos pueden ser considerados por encima del consentimiento. Puede leer más sobre ello en nuestra Política de Privacidad y Cookies.